This demonstration page uses our WeatherBlox Daily Observations layout. Learn more.

Left ArrowRight Arrow

39.51506, -84.39828

Hourly Observations for January 5, 2015

Temp ( °F °C ) Dew Point ( °F °C ) Humidity (%) Winds ( mph kmh ) Pressure ( in mb ) Visibility ( mi km ) Precip ( " mm )
12:53 am 00:53 Cloudy with Light Snow 20 -6.7 13 -10.6 74 74 W 16 26 30.40 1030 9 14 0.00 0.03
1:53 am 01:53 Cloudy with Light Snow 19 -7.2 12 -11.1 74 74 W 14 22 30.44 1031 8 13 0.00 0.03
2:53 am 02:53 Mostly Clear 16 -8.9 7 -13.9 67 67 WNW 17 28 30.48 1032 10 16 0.00 0.03
3:35 am 03:35 Mostly Cloudy with Light Snow 16 -8.9 8 -13.3 71 71 W 10 17 30.53 1034 9 14 0.00 0.03
3:53 am 03:53 Mostly Cloudy 15 -9.4 7 -13.9 70 70 W 14 22 30.50 1033 10 16 0.00 0.03
4:03 am 04:03 Mostly Clear 15 -9.4 6 -14.4 67 67 WNW 17 28 30.56 1035 10 16 0.00 0.00
4:53 am 04:53 Clear 14 -10 5 -15 67 67 W 9 15 30.52 1034 10 16 0.00 0.00
5:53 am 05:53 Clear 13 -10.6 4 -15.6 67 67 W 12 19 30.53 1034 10 16 0.00 0.00
6:53 am 06:53 Clear 13 -10.6 2 -16.7 61 61 W 12 19 30.55 1035 10 16 0.00 0.00
7:53 am 07:53 Clear 12 -11.1 2 -16.7 64 64 WNW 14 22 30.58 1036 10 16 0.00 0.00
8:53 am 08:53 Sunny 11 -11.7 4 -15.6 73 73 WNW 14 22 30.62 1037 10 16 0.00 0.00
9:53 am 09:53 Mostly Sunny 12 -11.1 2 -16.7 64 64 W 14 22 30.65 1038 10 16 0.00 0.00
10:53 am 10:53 Sunny 13 -10.6 0 -17.8 56 56 W 12 19 30.65 1038 10 16 0.00 0.00
11:53 am 11:53 Sunny 13 -10.6 0 -17.8 56 56 W 9 15 30.64 1038 10 16 0.00 0.00
12:53 pm 12:53 Sunny 14 -10 0 -17.8 53 53 WNW 9 15 30.61 1037 10 16 0.00 0.00
1:53 pm 13:53 Sunny 15 -9.4 -2 -18.9 46 46 W 9 15 30.58 1036 10 16 0.00 0.00
2:53 pm 14:53 Sunny 17 -8.3 1 -17.2 49 49 VRB 7 11 30.58 1036 10 16 0.00 0.00
3:53 pm 15:53 Sunny 16 -8.9 1 -17.2 51 51 W 8 13 30.58 1036 10 16 0.00 0.00
4:53 pm 16:53 Sunny 16 -8.9 2 -16.7 54 54 W 8 13 30.59 1036 10 16 0.00 0.00
5:53 pm 17:53 Clear 16 -8.9 3 -16.1 56 56 W 6 9 30.57 1035 10 16 0.00 0.00
6:53 pm 18:53 Clear 16 -8.9 2 -16.7 54 54 WSW 5 7 30.54 1034 10 16 0.00 0.00
7:53 pm 19:53 Mostly Cloudy 16 -8.9 3 -16.1 56 56 Calm 30.50 1033 10 16 0.00 0.00
8:53 pm 20:53 Cloudy 16 -8.9 4 -15.6 59 59 Calm 30.48 1032 10 16 0.00 0.00
9:53 pm 21:53 Cloudy 17 -8.3 6 -14.4 62 62 S 6 9 30.44 1031 10 16 0.00 0.00
10:35 pm 22:35 Cloudy with Light Snow 17 -8.3 9 -12.8 70 70 S 9 15 30.45 1031 3 4 0.00 0.03
10:42 pm 22:42 Cloudy with Light Snow 16 -8.9 10 -12.2 77 77 S 9 15 30.45 1031 2 3 0.00 0.03
10:53 pm 22:53 Cloudy with Light Snow 16 -8.9 12 -11.1 84 84 S 8 13 30.41 1030 2 2 0.00 0.03
11:53 pm 23:53 Cloudy with Light Snow 17 -8.3 14 -10 88 88 S 5 7 30.40 1029 1 2 0.03 0.76

Powered by AerisWeather